Location: Breitenfeld
(46.8500°N, 15.6333°E)
Time: 13:00:17
(UTC+00:00)

USA 234 - Pass Details

Date: 09 April 2020
Orbit: 1102 x 1106 km, 123.0° (Epoch: 14 May)

Event Time Altitude Azimuth Distance (km) Brightness Sun altitude
Rises 19:50:04 0° 54° (NE) 3,926 6.0 -21.0°
Reaches altitude 10° 19:52:39 10° 59° (ENE) 2,966 5.3 -21.4°
Maximum altitude 19:59:00 52° 135° (SE) 1,354 3.3 -22.2°
Drops below altitude 10° 20:05:20 10° 210° (SSW) 2,955 5.4 -23.0°
Sets 20:07:54 0° 215° (SW) 3,910 6.1 -23.3°
